Simultaneous Nadir Overpasses (SNOs) Predictions

Prediction of SNOs between GOES-16 and METOP-B Satellite Orbit:

Table of predicted SNOs for the next 14.0 days since TLE Epoch: 2/2/2018
Index Date Time (GOES-16) GOES-16 Lat,Lon METOP-B Lat,Lon Distance(km) Time Diff (sec)
1 02/04/2018 02:33:11 0.00, -75.16 -0.22, -76.08 105.25 80
2 02/05/2018 02:15:12 -0.00, -75.17 0.89, -71.09 464.79 80
3 02/06/2018 14:31:24 -0.00, -75.22 0.10, -75.66 50.34 80
4 02/09/2018 02:32:25 0.00, -75.22 0.02, -75.27 5.73 80
5 02/11/2018 14:30:36 -0.01, -75.28 -0.08, -74.83 51.48 80
6 02/13/2018 02:46:57 0.01, -75.28 -0.91, -79.43 472.78 80
7 02/14/2018 02:28:57 0.01, -75.30 0.21, -74.44 98.39 80
8 02/15/2018 14:45:10 -0.01, -75.36 0.78, -79.01 415.17 80
9 02/16/2018 14:27:10 -0.01, -75.38 -0.33, -74.01 156.44 80




NCC Satellite Simultaneous Nadir Overpasses (SNOs) Prediction Service
